When you browse on this site, cookies collect data to enhance your experience and personalize the content and advertising you see.
Visit our Privacy Policy to learn more. By continuing to use the site, you agree to this use of cookies and data.
  • In Switzerland
  • List of Countries
  • For 7 days
  • Water Temperature
  • Weather Map
  • Weather Widgets
  • user-avatar
    Login

    Hourly Weather Onvervaht

    Today, 2 June, Tuesday

    Time Temperature Precipitation Wind Pressure Humidity
    00:00 +22°C° 0 mm 0 mps 759 mmHg 95%
    01:00 +22°C° 0 mm 0 mps 759 mmHg 96%
    02:00 +24°C° 0 mm 1 mps 758 mmHg 96%
    03:00 +22°C° 0 mm 0 mps 758 mmHg 96%
    04:00 +22°C° 0 mm 0 mps 758 mmHg 96%
    05:00 +22°C° 0 mm 0 mps 758 mmHg 96%
    06:00 +24°C° 0 mm 0 mps 759 mmHg 87%
    07:00 +28°C° 0 mm 1 mps 759 mmHg 79%
    08:00 +30°C° 0 mm 1 mps 760 mmHg 68%
    09:00 +31°C° 0 mm 1 mps 760 mmHg 63%
    10:00 +32°C° 0 mm 1 mps 759 mmHg 58%
    11:00 +34°C° 0 mm 1 mps 759 mmHg 52%
    12:00 +33°C° 0.1 mm 1 mps 759 mmHg 54%
    13:00 +33°C° 0.1 mm 1 mps 758 mmHg 57%
    14:00 +33°C° 0.1 mm 1 mps 757 mmHg 59%
    15:00 +31°C° 0.6 mm 1 mps 757 mmHg 68%
    16:00 +30°C° 0.6 mm 1 mps 757 mmHg 77%
    17:00 +28°C° 0.6 mm 2 mps 757 mmHg 86%
    18:00 +27°C° 0.8 mm 1 mps 757 mmHg 90%
    19:00 +27°C° 0.8 mm 1 mps 758 mmHg 93%
    20:00 +26°C° 0.8 mm 1 mps 758 mmHg 97%
    21:00 +26°C° 0.1 mm 1 mps 758 mmHg 97%
    22:00 +25°C° 0.1 mm 1 mps 759 mmHg 98%
    23:00 +25°C° 0.1 mm 1 mps 759 mmHg 98%

    Tomorrow, 3 June, Wednesday

    Time Temperature Precipitation Wind Pressure Humidity
    00:00 +25°C° 0 mm 1 mps 758 mmHg 98%
    01:00 +25°C° 0 mm 1 mps 758 mmHg 98%
    02:00 +25°C° 0 mm 1 mps 757 mmHg 99%
    03:00 +25°C° 0 mm 1 mps 757 mmHg 99%
    04:00 +23°C° 0 mm 0 mps 757 mmHg 99%
    05:00 +23°C° 0 mm 0 mps 757 mmHg 99%
    06:00 +26°C° 0 mm 1 mps 758 mmHg 95%
    07:00 +27°C° 0 mm 1 mps 758 mmHg 91%
    08:00 +28°C° 0 mm 1 mps 758 mmHg 87%
    09:00 +29°C° 0.7 mm 1 mps 758 mmHg 84%
    10:00 +30°C° 0.7 mm 1 mps 758 mmHg 82%
    11:00 +31°C° 0.7 mm 1 mps 758 mmHg 80%
    12:00 +31°C° 2.2 mm 1 mps 758 mmHg 83%
    13:00 +30°C° 2.2 mm 1 mps 757 mmHg 85%
    14:00 +30°C° 2.2 mm 2 mps 756 mmHg 88%
    15:00 +29°C° 1.3 mm 1 mps 756 mmHg 89%
    16:00 +29°C° 1.3 mm 1 mps 756 mmHg 89%
    17:00 +28°C° 1.3 mm 1 mps 756 mmHg 90%
    18:00 +27°C° 0 mm 1 mps 757 mmHg 92%
    19:00 +27°C° 0 mm 1 mps 757 mmHg 93%
    20:00 +26°C° 0 mm 1 mps 758 mmHg 95%
    21:00 +26°C° 0 mm 1 mps 758 mmHg 96%
    22:00 +26°C° 0 mm 1 mps 758 mmHg 96%
    23:00 +25°C° 0 mm 1 mps 758 mmHg 97%

    Day after tomorrow, 4 June, Thursday

    Time Temperature Precipitation Wind Pressure Humidity
    00:00 +25°C° 0 mm 1 mps 758 mmHg 98%
    01:00 +25°C° 0 mm 1 mps 757 mmHg 98%
    02:00 +25°C° 0 mm 1 mps 757 mmHg 99%
    03:00 +25°C° 0 mm 1 mps 757 mmHg 99%
    04:00 +25°C° 0 mm 1 mps 757 mmHg 99%
    05:00 +24°C° 0 mm 1 mps 757 mmHg 99%
    06:00 +26°C° 0 mm 1 mps 758 mmHg 94%
    07:00 +27°C° 0 mm 1 mps 758 mmHg 88%
    08:00 +28°C° 0 mm 2 mps 759 mmHg 83%
    09:00 +30°C° 0 mm 2 mps 758 mmHg 73%
    10:00 +32°C° 0 mm 2 mps 758 mmHg 63%
    11:00 +35°C° 0 mm 2 mps 758 mmHg 53%
    12:00 +34°C° 0.4 mm 2 mps 758 mmHg 60%
    13:00 +34°C° 0.4 mm 2 mps 757 mmHg 67%
    14:00 +32°C° 0.4 mm 2 mps 757 mmHg 73%
    15:00 +31°C° 1.6 mm 1 mps 757 mmHg 80%
    16:00 +29°C° 1.6 mm 1 mps 757 mmHg 87%
    17:00 +28°C° 1.6 mm 1 mps 756 mmHg 94%
    18:00 +27°C° 0.2 mm 1 mps 757 mmHg 95%
    19:00 +26°C° 0.2 mm 1 mps 758 mmHg 96%
    20:00 +26°C° 0.2 mm 1 mps 758 mmHg 97%
    21:00 +26°C° 0 mm 1 mps 758 mmHg 98%
    22:00 +25°C° 0 mm 1 mps 758 mmHg 98%
    23:00 +25°C° 0 mm 1 mps 759 mmHg 98%

    5 June, Friday

    Time Temperature Precipitation Wind Pressure Humidity
    00:00 +25°C° 0 mm 1 mps 758 mmHg 99%
    01:00 +25°C° 0 mm 1 mps 758 mmHg 99%
    02:00 +25°C° 0 mm 1 mps 757 mmHg 99%
    03:00 +25°C° 0 mm 1 mps 757 mmHg 99%
    04:00 +24°C° 0 mm 1 mps 758 mmHg 99%
    05:00 +24°C° 0 mm 1 mps 758 mmHg 99%
    06:00 +25°C° 0 mm 1 mps 758 mmHg 94%
    07:00 +26°C° 0 mm 1 mps 759 mmHg 90%
    08:00 +28°C° 0 mm 1 mps 759 mmHg 85%
    09:00 +29°C° 0.1 mm 1 mps 759 mmHg 78%
    10:00 +31°C° 0.1 mm 2 mps 759 mmHg 70%
    11:00 +34°C° 0.1 mm 2 mps 759 mmHg 62%
    12:00 +32°C° 0.8 mm 2 mps 758 mmHg 68%
    13:00 +31°C° 0.8 mm 2 mps 758 mmHg 74%
    14:00 +31°C° 0.8 mm 2 mps 757 mmHg 80%
    15:00 +30°C° 0.6 mm 1 mps 757 mmHg 83%
    16:00 +29°C° 0.6 mm 1 mps 757 mmHg 87%
    17:00 +29°C° 0.6 mm 1 mps 757 mmHg 90%
    18:00 +28°C° 0.5 mm 1 mps 758 mmHg 93%
    19:00 +27°C° 0.5 mm 1 mps 758 mmHg 96%
    20:00 +26°C° 0.5 mm 1 mps 759 mmHg 98%
    21:00 +25°C° 0.1 mm 1 mps 759 mmHg 98%
    22:00 +25°C° 0.1 mm 1 mps 759 mmHg 99%
    23:00 +25°C° 0.1 mm 1 mps 760 mmHg 99%

    6 June, Saturday

    Time Temperature Precipitation Wind Pressure Humidity
    00:00 +25°C° 0 mm 1 mps 759 mmHg 99%
    01:00 +25°C° 0 mm 1 mps 758 mmHg 99%
    02:00 +25°C° 0 mm 1 mps 758 mmHg 99%
    03:00 +25°C° 0 mm 1 mps 758 mmHg 99%
    04:00 +22°C° 0 mm 0 mps 758 mmHg 99%
    05:00 +22°C° 0 mm 0 mps 758 mmHg 99%
    06:00 +26°C° 0 mm 1 mps 759 mmHg 96%
    07:00 +27°C° 0 mm 1 mps 759 mmHg 92%
    08:00 +28°C° 0 mm 1 mps 760 mmHg 89%
    09:00 +30°C° 0 mm 1 mps 759 mmHg 79%
    10:00 +31°C° 0 mm 1 mps 759 mmHg 69%
    11:00 +33°C° 0 mm 1 mps 759 mmHg 59%
    12:00 +32°C° 1.3 mm 1 mps 758 mmHg 68%
    13:00 +31°C° 1.3 mm 1 mps 758 mmHg 77%
    14:00 +30°C° 1.3 mm 1 mps 757 mmHg 86%
    15:00 +30°C° 1.6 mm 1 mps 757 mmHg 89%
    16:00 +29°C° 1.6 mm 1 mps 757 mmHg 92%
    17:00 +28°C° 1.6 mm 1 mps 757 mmHg 94%
    18:00 +27°C° 0.3 mm 1 mps 758 mmHg 95%
    19:00 +26°C° 0.3 mm 1 mps 758 mmHg 96%
    20:00 +26°C° 0.3 mm 1 mps 759 mmHg 98%
    21:00 +25°C° 0 mm 1 mps 759 mmHg 98%
    22:00 +25°C° 0 mm 1 mps 759 mmHg 98%
    23:00 +25°C° 0 mm 1 mps 760 mmHg 99%

    7 June, Sunday

    Time Temperature Precipitation Wind Pressure Humidity
    00:00 +25°C° 0 mm 1 mps 759 mmHg 99%
    01:00 +23°C° 0 mm 0 mps 758 mmHg 99%
    02:00 +23°C° 0 mm 0 mps 758 mmHg 99%
    03:00 +23°C° 0 mm 0 mps 758 mmHg 99%
    04:00 +23°C° 0 mm 0 mps 758 mmHg 99%
    05:00 +23°C° 0 mm 0 mps 758 mmHg 99%
    06:00 +26°C° 0.1 mm 1 mps 759 mmHg 96%
    07:00 +27°C° 0.1 mm 1 mps 759 mmHg 93%
    08:00 +28°C° 0.1 mm 1 mps 759 mmHg 90%
    09:00 +28°C° 1.3 mm 1 mps 759 mmHg 91%
    10:00 +28°C° 1.3 mm 1 mps 759 mmHg 91%
    11:00 +29°C° 1.3 mm 1 mps 759 mmHg 92%
    12:00 +29°C° 0.8 mm 1 mps 759 mmHg 91%
    13:00 +28°C° 0.8 mm 1 mps 758 mmHg 91%
    14:00 +28°C° 0.8 mm 1 mps 757 mmHg 90%
    15:00 +28°C° 0.1 mm 1 mps 757 mmHg 90%
    16:00 +28°C° 0.1 mm 1 mps 757 mmHg 90%
    17:00 +28°C° 0.1 mm 1 mps 757 mmHg 91%
    18:00 +27°C° 0 mm 1 mps 758 mmHg 92%
    19:00 +27°C° 0 mm 1 mps 758 mmHg 94%
    20:00 +24°C° 0 mm 0 mps 759 mmHg 96%
    21:00 +24°C° 0.1 mm 0 mps 759 mmHg 97%
    22:00 +24°C° 0.1 mm 0 mps 759 mmHg 97%
    23:00 +24°C° 0.1 mm 0 mps 759 mmHg 98%
    Show more